Regional Weather Roundup
Issued by NWS

Home | Current Version | Previous Version | Graphics & Text | Print | Product List | Glossary On
Versions: 1 2 3 4 5 6 7 8 9 10 11 12 13 14 15 16 17 18 19 20 21 22 23 24 25 26 27 28 29 30 31 32 33 34 35 36 37 38 39 40 41 42 43 44 45 46 47 48 49 50
000
ASUS43 KDTX 201710
RWRMI
MICHIGAN HOURLY REGIONAL WEATHER ROUNDUP
NATIONAL WEATHER SERVICE DETROIT/PONTIAC MI
1200 PM EST MON NOV 20 2017

NOTE: "FAIR" INDICATES FEW OR NO CLOUDS BELOW 12,000 FEET WITH NO
SIGNIFICANT WEATHER AND/OR OBSTRUCTION TO VISIBILITY.

MIZ047>049-052>055-059>063-066>070-074>076-081>083-201800-
SOUTHEAST LOWER MICHIGAN

CITY           SKY/WX    TMP DP  RH WIND       PRES   REMARKS
ADRIAN         SUNNY     40  26  57 SW20      30.01F WCI  30
ALMA           CLOUDY    39  29  68 S13       29.89F WCI  32
ANN ARBOR      SUNNY     42  27  55 S20G25    29.97F
BAD AXE        CLOUDY    39  30  70 SW12      29.89F WCI  32
CARO           CLOUDY    42  29  59 SW13      29.88F
DETROIT CITY   SUNNY    N/A N/A N/A SW23G30   29.97F
DETROIT        PTSUNNY   43  26  51 SW18      29.99F
FLINT          SUNNY     43  27  53 SW20      29.92F
GROSSE ILE     SUNNY     42  27  55 SW16      30.00F
HILLSDALE      SUNNY     43  27  52 SW17G28   29.96F
HOWELL         SUNNY     44  28  54 SW20      29.92F

CITY           SKY/WX    TMP DP  RH WIND       PRES   REMARKS
JACKSON        SUNNY     44  26  49 SW17G24   29.94F
LAMBERTVILLE   SUNNY     45  26  47 SW9G20    30.01F
LANSING        SUNNY     42  27  55 SW20      29.92F
LAPEER         FAIR      44  28  52 SW12G21   29.91F
MASON          SUNNY     44  28  52 SW8G24    29.93F
MONROE         SUNNY     43  25  48 SW17G24   30.00F
MT. CLEMENS    PTSUNNY   44  27  51 SW18      29.94F
PONTIAC        PTSUNNY   43  27  53 S9        29.92F
PORT HOPE        N/A     40  30  67 SW8       29.87F WCI  34
PORT HURON     SUNNY     41  25  52 S15       29.95F
TRI CITIES     CLOUDY    40  30  67 SW17G24   29.89F WCI  31
MIDLAND        FAIR      40  30  65 S12       29.87F WCI  33
TROY           SUNNY     44  26  48 SW20      29.97F
SAGINAW HB     CLOUDY    39  30  70 SW17G24   29.89F WCI  30
$$
MIZ043>046-050>051-056>058-064>065-071>073-077>080-201800-
SOUTHWEST LOWER MICHIGAN

CITY           SKY/WX    TMP DP  RH WIND       PRES   REMARKS
BATTLE CREEK   SUNNY     43  28  55 SW18G24   29.93F
BENTON HARBOR  SUNNY     46  27  47 S10       29.91F
BIG RAPIDS     CLOUDY    38  32  77 S7        29.82F WCI  33
COLDWATER      SUNNY     44  25  45 SW20G25   29.95F
FREMONT        CLOUDY    43  35  75 S12       29.83F
HOLLAND        SUNNY     44  32  62 SW18G25   29.90F
GRAND RAPIDS   PTSUNNY   42  30  62 SW14G24   29.89F
IONIA          FAIR      41  27  57 S17       29.89F
KALAMAZOO      SUNNY     44  26  49 S14G25    29.93F
LUDINGTON      CLOUDY    43  34  71 SW16      29.80F
MARSHALL       SUNNY     42  26  52 S16G25    29.93F
MOUNT PLEASANT CLOUDY    42  30  63 SW10G17   29.86F
MUSKEGON       PTSUNNY   48  34  58 SW21G26   29.86F
SOUTH HAVEN    SUNNY     46  27  46 S10G16    29.90F
$$
MIZ016>042-201800-
NORTHERN LOWER MICHIGAN

CITY           SKY/WX    TMP DP  RH WIND       PRES   REMARKS
ALPENA         CLOUDY    37  29  72 S8        29.84F WCI  31
BEAVER ISLAND  CLOUDY    41  32  71 S8        29.75F
BELLAIRE       CLOUDY    40  34  79 S12       29.79F WCI  34
CADILLAC       CLOUDY    36  33  87 S12G17    29.79F WCI  28
CHARLEVOIX     MOSUNNY   41  32  71 S8        29.80F
FRANKFORT      PTSUNNY   43  36  75 S9G16     29.78F
GAYLORD        CLOUDY    36  29  75 SW12      29.77F WCI  28
GRAYLING       CLOUDY    37  31  80 S6        29.81F WCI  32
HARBOR SPRINGS CLOUDY    39  30  71 S6        29.77F WCI  34
MANISTEE       MOSUNNY   43  33  68 S13       29.79F
OSCODA         MOSUNNY   40  31  70 SW10      29.85F WCI  33
PELLSTON       CLOUDY    34  28  79 SE6       29.78F WCI  29
ROGERS CITY    MOSUNNY   34  27  74 S6        29.82F WCI  29
TRAVERSE CITY  CLOUDY    42  33  70 S9G18     29.78F
$$
MIZ007>008-015-201800-
EASTERN UPPER MICHIGAN

CITY           SKY/WX    TMP DP  RH WIND       PRES   REMARKS
KINROSS        CLOUDY    34  25  69 S10       29.77F WCI  26
MACKINAC ISLAN CLOUDY    36  26  66 SE10G16   29.77F WCI  28
NEWBERRY       CLOUDY    33  27  81 SE8       29.74F WCI  25
S. S. MARIE    CLOUDY    33  24  69 SE10      29.78F WCI  25
MUNISING         N/A     33  24  69 S10G18    29.69F WCI  25
$$
MIZ004>006-011>014-085-201800-
CENTRAL UPPER MICHIGAN

CITY           SKY/WX    TMP DP  RH WIND       PRES   REMARKS
MANISTIQUE     CLOUDY    38  30  71 S9        29.73F WCI  32
ESCANABA       CLOUDY    35  28  75 S6        29.71F WCI  30
MENOMINEE      SUNNY     38  26  62 VRB6      29.73F WCI  33
SAWYER-GWINN   PTSUNNY   28  21  74 S13       29.67F WCI  18
$$
MIZ001>003-009>011-084-201800-
WESTERN UPPER MICHIGAN

CITY           SKY/WX    TMP DP  RH WIND       PRES   REMARKS
IRON MOUNTAIN  CLOUDY    31  21  66 SE7       29.65F WCI  24
HOUGHTON       CLOUDY    27  22  81 SE7       29.60F WCI  19
COPPER HARBOR    N/A     35  25  66 SW9G17    29.61F WCI  28
IRONWOOD       CLOUDY    33  26  75 S9        29.57F WCI  25
$$

ABBREVIATIONS USED IN REMARKS
   TC - TEMPERATURE IN CELSIUS
  WCI - WIND CHILL INDEX
   HX - HEAT INDEX
  VSB - VISIBILITY





USA.gov is the U.S. government's official web portal to all federal, state and local government web resources and services.